Home   Weather   Karaganda   Past weeks

Flag for Kazakhstan Past Weather in Karaganda, Kazakhstan — Yesterday and Last 2 Weeks

14 °F

Light snow. Overcast.

Feels Like: 5 °F
Forecast: 6 / 19 °F
Wind: 6 mph from Northeast

Location: Karaganda

Current Time: Oct 23, 2016 at 5:37:47 AM

Latest Report: Oct 23, 2016 at 5:00 AM

Visibility: 4 mi

Pressure: 30.54 "Hg (28.42 "Hg at 555m altitude)

Humidity: 92%

Dew Point: 12 °F

Location of KaragandaLocation

Past Weather in Karaganda — Graph


Karaganda Temperature Yesterday

Maximum temperature yesterday: 25 °F (at 1:00 PM)
Minimum temperature yesterday: 16 °F (at 9:00 PM)
Average temperature yesterday: 21 °F

High & Low Weather Summary for the Past Weeks

High46 °F (Oct 9, 2:30 PM)100% (Oct 9, 12:30 AM)30.54 "Hg (Oct 9, 12:30 AM)
Low10 °F (Oct 23, 12:30 AM)34% (Oct 9, 2:30 PM)29.62 "Hg (Oct 18, 2:30 PM)
Average30 °F86%30.11 "Hg
* Reported Oct 8 4:00 AM — Oct 23 4:30 AM, Karaganda, Weather by CustomWeather, © 2016

Note: Actual official high and low records may vary slightly from our data, if they occured in-between our weather recording intervals... More about our weather records


Karaganda Weather History for the Previous 24 Hours

Scroll right to see more
Time TempWeatherWind HumidityBarometerVisibility
4:30 AM
Sun, Oct 23
14 °FLight snow. Overcast.6 mph100%30.54 "Hg3 mi
4:00 AM16 °FLight snow. Passing clouds.6 mph93%30.54 "Hg5 mi
3:30 AM16 °FLight snow. Passing clouds.3 mph93%30.54 "Hg4 mi
3:00 AM14 °FLight snow. Passing clouds.1 mph92%30.54 "Hg4 mi
2:30 AM14 °FPassing clouds.1 mph92%30.54 "HgN/A
2:00 AM14 °FPassing clouds.3 mph92%30.54 "HgN/A
1:30 AM12 °FPassing clouds.3 mph92%30.54 "HgN/A
1:00 AM12 °FPassing clouds.3 mph92%30.54 "HgN/A
12:30 AM10 °FPassing clouds.3 mph92%30.54 "Hg5 mi
12:00 AM12 °FPassing clouds.6 mph92%30.54 "HgN/A
11:30 PM
Sat, Oct 22
16 °FLight snow. Overcast.8 mph86%30.54 "Hg6 mi
11:00 PM18 °FLight snow. Mostly cloudy.10 mph86%30.54 "HgN/A
10:30 PM18 °FLight snow. Mostly cloudy.8 mph86%30.54 "Hg5 mi
10:00 PM18 °FLight snow. Overcast.10 mph86%30.54 "Hg5 mi
9:30 PM16 °FOvercast.10 mph93%30.54 "HgN/A
9:00 PM16 °FPartly cloudy.10 mph93%30.54 "HgN/A
8:30 PM18 °FMostly cloudy.8 mph86%30.54 "HgN/A
8:00 PM19 °FMostly cloudy.10 mph86%30.54 "HgN/A
7:30 PM21 °FMostly cloudy.8 mph86%30.54 "HgN/A
7:00 PM21 °FLight snow. More clouds than sun.6 mph86%30.51 "HgN/A
6:30 PM21 °FMore clouds than sun.8 mph86%30.51 "HgN/A
6:00 PM21 °FLight snow. More clouds than sun.8 mph93%30.51 "HgN/A
5:30 PM21 °FPartly sunny.10 mph86%30.48 "HgN/A
5:00 PM23 °FPartly sunny.8 mph86%30.48 "HgN/A
4:30 PM23 °FLight snow. Partly sunny.10 mph86%30.48 "Hg5 mi
4:00 PM23 °FLight snow. Partly sunny.10 mph86%30.45 "Hg4 mi
3:30 PM25 °FLight snow. Partly sunny.13 mph80%30.45 "Hg5 mi
3:00 PM25 °FLight snow. Partly sunny.10 mph80%30.45 "HgN/A
2:30 PM25 °FLight snow. Partly sunny.10 mph80%30.45 "Hg4 mi
2:00 PM25 °FLight snow. Partly sunny.10 mph80%30.45 "Hg4 mi
1:30 PM25 °FLight snow. Partly sunny.8 mph80%30.45 "HgN/A
1:00 PM25 °FPartly sunny.8 mph80%30.42 "HgN/A
12:30 PM23 °FBroken clouds.10 mph86%30.42 "HgN/A
12:00 PM23 °FBroken clouds.10 mph86%30.42 "HgN/A
11:30 AM23 °FPartly sunny.10 mph86%30.42 "HgN/A
11:00 AM23 °FPartly sunny.6 mph80%30.42 "HgN/A
10:30 AM23 °FPartly sunny.3 mph86%30.42 "HgN/A
10:00 AM21 °FLight snow. Partly sunny.6 mph100%30.42 "HgN/A
9:30 AM21 °FLight snow. Partly sunny.6 mph93%30.42 "HgN/A
9:00 AM19 °FLight snow. Overcast.6 mph100%30.42 "HgN/A
8:30 AM19 °FLight snow. Overcast.1 mph100%30.39 "HgN/A
8:00 AM19 °FLight snow. Overcast.1 mph93%30.39 "HgN/A
7:30 AM19 °FLight snow. Overcast.3 mph93%30.39 "Hg5 mi
7:00 AM19 °FLight snow. Overcast.1 mph93%30.39 "HgN/A
6:00 AM19 °FLight snow. Overcast.3 mph93%30.39 "HgN/A
5:30 AM19 °FLight snow. Overcast.3 mph100%30.39 "Hg5 mi
5:00 AM19 °FOvercast.1 mph100%30.36 "HgN/A
Weather by CustomWeather, © 2016

See weather overviewHow to use our weather pages